FW7576 Weather Reports


time (UTC)temp
F
wind
direction
speed
knots
gust
knots
rain 1hr
in
rain 24hr
in
rain mn
in
humidity
%
barometer
mb
20260510224555 59 271 3.5 10.4 0.00 0.00 0.00 35 1019.3
20260510223036 60 257 5.2 11.3 0.00 0.00 0.00 33 1019.2
20260510221542 60 285 3.5 15.6 0.00 0.00 0.00 33 1019.3
20260510220043 60 285 5.2 11.3 0.00 0.00 0.00 32 1019.0
20260510214553 60 247 3.5 9.6 0.00 0.00 0.00 33 1019.0
20260510213036 60 295 5.2 9.6 0.00 0.00 0.00 32 1018.8
20260510211536 59 300 3.5 7.8 0.00 0.00 0.00 32 1018.9
20260510210035 61 26 4.3 9.6 0.00 0.00 0.00 30 1018.9
20260510204539 62 45 2.6 7.0 0.00 0.00 0.00 31 1018.8
20260510203038 59 284 5.2 13.0 0.00 0.00 0.00 32 1019.0
20260510201535 60 11 2.6 9.6 0.00 0.00 0.00 31 1018.9
20260510200035 60 279 5.2 13.0 0.00 0.00 0.00 31 1019.0
20260510194542 60 272 7.0 13.9 0.00 0.00 0.00 30 1018.8
20260510193039 60 245 3.5 14.8 0.00 0.00 0.00 32 1019.1
20260510191538 60 252 5.2 12.2 0.00 0.00 0.00 30 1018.9
20260510190037 60 22 2.6 8.7 0.00 0.00 0.00 31 1019.0
20260510184537 59 336 2.6 13.0 0.00 0.00 0.00 31 1018.8
20260510183036 58 287 5.2 12.2 0.00 0.00 0.00 30 1018.9
20260510181535 58 302 4.3 9.6 0.00 0.00 0.00 32 1019.1
20260510180041 59 222 5.2 11.3 0.00 0.00 0.00 35 1018.8
20260510174537 57 253 4.3 13.9 0.00 0.00 0.00 35 1019.2
20260510173038 59 302 4.3 10.4 0.00 0.00 0.00 35 1018.9
20260510171539 58 349 4.3 12.2 0.00 0.00 0.00 35 1019.1
20260510170035 58 321 5.2 11.3 0.00 0.00 0.00 34 1019.1
20260510164538 58 275 2.6 12.2 0.00 0.00 0.00 36 1019.1
20260510163038 57 223 5.2 10.4 0.00 0.00 0.00 34 1019.1
20260510161538 57 295 5.2 11.3 0.00 0.00 0.00 39 1019.2
20260510160038 56 264 4.3 11.3 0.00 0.00 0.00 37 1019.1
20260510154536 55 243 7.0 12.2 0.00 0.00 0.00 38 1019.0
20260510153037 55 257 5.2 8.7 0.00 0.00 0.00 37 1018.9
20260510151532 55 264 4.3 7.8 0.00 0.00 0.00 38 1019.0
20260510150043 54 286 1.7 8.7 0.00 0.00 0.00 39 1019.1
20260510144536 53 248 2.6 7.0 0.00 0.00 0.00 40 1019.1
20260510143036 53 236 1.7 4.3 0.00 0.00 0.00 40 1019.1
20260510141535 53 193 2.6 6.1 0.00 0.00 0.00 39 1018.8
20260510140035 52 259 2.6 4.3 0.00 0.00 0.00 42 1018.7
20260510134534 51 0 0.9 3.5 0.00 0.00 0.00 44 1018.7
20260510133035 50 261 2.6 5.2 0.00 0.00 0.00 45 1018.7
20260510131538 49 0 1.7 4.3 0.00 0.00 0.00 59 1018.7
20260510130038 48 238 0.9 2.6 0.00 0.00 0.00 58 1018.5
20260510124539 47 243 1.7 2.6 0.00 0.00 0.00 62 1018.3
20260510123036 46 302 0.9 3.5 0.00 0.00 0.00 64 1018.1
20260510121531 44 305 1.7 2.6 0.00 0.00 0.00 67 1018.1
20260510120038 43 0 0.0 1.7 0.00 0.00 0.00 71 1018.0
20260510114537 41 28 0.0 0.9 0.00 0.00 0.00 76 1017.7
20260510113037 39 0 0.0 0.9 0.00 0.00 0.00 79 1017.6
20260510111535 37 0 0.0 0.0 0.00 0.00 0.00 83 1017.6
20260510110042 35 0 0.0 0.0 0.00 0.00 0.00 84 1017.3
20260510104539 35 0 0.0 0.9 0.00 0.00 0.00 84 1017.2
20260510103041 35 0 0.0 0.0 0.00 0.00 0.00 84 1017.0
20260510101535 35 0 0.0 0.0 0.00 0.00 0.00 84 1016.8
20260510100038 35 0 0.0 0.0 0.00 0.00 0.00 83 1016.7
20260510094542 36 0 0.0 0.0 0.00 0.00 0.00 83 1016.3
20260510093041 36 0 0.0 0.0 0.00 0.00 0.00 82 1016.2
20260510091539 36 0 0.0 0.0 0.00 0.00 0.00 81 1016.0
20260510090042 36 0 0.0 0.0 0.00 0.00 0.00 80 1016.0
20260510084538 37 0 0.0 0.0 0.00 0.00 0.00 80 1015.7
20260510083036 37 0 0.0 0.0 0.00 0.00 0.00 77 1015.5
20260510081551 38 0 0.0 0.0 0.00 0.00 0.00 77 1015.4
20260510080143 38 0 0.0 0.0 0.00 0.00 0.00 76 1015.2
20260510074539 39 0 0.0 0.0 0.00 0.00 0.00 75 1014.8
20260510073038 39 0 0.0 0.0 0.00 0.00 0.00 74 1014.8
20260510071535 39 0 0.0 0.0 0.00 0.00 0.00 73 1014.5
20260510070040 40 0 0.0 0.0 0.00 0.00 0.00 71 1014.4
20260510064536 41 0 0.0 0.0 0.00 0.00 0.00 69 1014.4
20260510063035 42 0 0.0 0.9 0.00 0.00 0.00 66 1014.2
20260510061539 43 28 0.0 3.5 0.00 0.00 0.00 65 1014.0
20260510060037 43 51 0.0 0.9 0.00 0.00 0.00 66 1013.9
20260510054546 44 51 0.0 2.6 0.00 0.00 0.00 65 1013.9
20260510053034 44 46 1.7 4.3 0.00 0.00 0.00 64 1013.7
20260510051536 45 46 3.5 7.8 0.00 0.00 0.00 63 1013.6
20260510050051 45 60 2.6 9.6 0.00 0.00 0.00 62 1013.5
20260510044546 45 55 2.6 7.8 0.00 0.00 0.00 62 1013.2
20260510043038 46 62 5.2 12.2 0.00 0.00 0.00 61 1013.0
20260510041548 47 61 4.3 12.2 0.00 0.00 0.00 57 1012.8
20260510040039 49 12 5.2 15.6 0.00 0.00 0.00 51 1012.4
20260510034537 53 34 7.0 11.3 0.00 0.00 0.00 40 1011.8
20260510033043 53 304 0.0 2.6 0.00 0.00 0.00 40 1011.1
20260510031550 54 0 0.0 3.5 0.00 0.00 0.00 39 1010.9
20260510030038 55 349 0.0 2.6 0.00 0.00 0.00 39 1010.9
20260510024553 56 325 0.0 3.5 0.00 0.00 0.00 37 1010.7
20260510023036 56 32 1.7 8.7 0.00 0.00 0.00 37 1010.4
20260510021535 57 278 2.6 5.2 0.00 0.00 0.00 37 1010.1
20260510020032 57 322 4.3 10.4 0.00 0.00 0.00 39 1009.8
20260510014540 58 53 1.7 5.2 0.00 0.00 0.00 40 1009.4
20260510013040 58 340 2.6 7.0 0.00 0.00 0.00 39 1009.1
20260510011538 59 332 1.7 6.1 0.00 0.00 0.00 38 1008.7
20260510010038 60 360 1.7 9.6 0.00 0.00 0.00 37 1008.2
20260510004538 61 347 4.3 10.4 0.00 0.00 0.00 37 1008.0
20260510003041 61 294 2.6 9.6 0.00 0.00 0.00 37 1007.8
20260510001539 62 329 4.3 8.7 0.00 0.00 0.00 36 1007.6
20260510000041 63 63 3.5 9.6 0.00 0.00 0.00 37 1007.3
20260509234538 63 8 4.3 9.6 0.00 0.00 0.00 37 1007.1
20260509233046 63 293 2.6 11.3 0.00 0.00 0.00 37 1007.0
20260509231535 63 304 4.3 12.2 0.00 0.00 0.00 38 1006.9
20260509230035 64 316 5.2 13.9 0.00 0.00 0.00 37 1006.5